SL-16 DEB

基本信息
目录编号:
35420
目录名称:
SL-16 DEB
国际标识:
2001-056M
轨道中心:
EARTH
物体状态:
在轨
发射日期:
2001-12-10 UTC
轨道信息
数据来源: 国际轨道数据
星历时间: 2026-07-13T15:23:13+0800
半长轴: 7350.046km
偏心率: 0.0024398
轨道倾角: 99.456°
近地点辐角: 196.097°
升交点赤经: 328.942°
平近点角: 193.510°
近地点: 953.976km
远地点: 989.842km
周期: 104.519分钟
每日圈数: 13.777414
详细信息
发射场:
TTMTR
轨道高度:
LEO
数据来源:
AOE Integration Group
参考系:
TEME
时间系统:
UTC
历元类型:
SGP4
2D轨道图
3D轨道图
轨道高度分析图
轨道倾角分析图
轨道综合分析图
查看轨道综合分析图